Location: Bannatyne
(13.0833°N, 59.5333°W)
Time: 15:03:21
(UTC+00:00)

Transit 4A - Pass Details

Date: 19 January 2021
Orbit: 866 x 978 km, 66.8° (Epoch: 05 March)

Event Time Altitude Azimuth Distance (km) Brightness Sun altitude
Rises 23:41:42 0° 224° (SW) 3,624 11.9 -25.9°
Reaches altitude 10° 23:44:34 10° 235° (SW) 2,692 11.2 -26.6°
Maximum altitude 23:49:56 29° 294° (WNW) 1,682 9.6 -27.9°
Enters shadow 23:55:15 11° 352° (N) 2,678 10.2 -29.1°
